When you browse on this site, cookies collect data to enhance your experience and personalize the content and advertising you see.
Visit our Privacy Policy to learn more. By continuing to use the site, you agree to this use of cookies and data.
  • în România
  • Lista ţărilor
  • Pe 7 zile
  • Temperatura apei
  • Hartă satelitară
  • Meteo pe hartă
  • Widget-uri
  • user-avatar
    Intrare

    Meteo pe oră la Aci Bonaccorsi

    Astăzi, 21 Iulie, Duminică

    Timp Temperatura Precipitaţii Vânt Presiune Umiditate
    00:00 +24°C° 0 mm 1 m/s 738 mmHg 67%
    01:00 +24°C° 0 mm 1 m/s 738 mmHg 69%
    02:00 +24°C° 0 mm 1 m/s 737 mmHg 68%
    03:00 +24°C° 0 mm 1 m/s 737 mmHg 66%
    04:00 +24°C° 0 mm 1 m/s 737 mmHg 64%
    05:00 +25°C° 0 mm 1 m/s 737 mmHg 59%
    06:00 +26°C° 0 mm 1 m/s 738 mmHg 53%
    07:00 +27°C° 0 mm 1 m/s 738 mmHg 46%
    08:00 +29°C° 0 mm 1 m/s 738 mmHg 42%
    09:00 +30°C° 0 mm 1 m/s 738 mmHg 38%
    10:00 +31°C° 0 mm 1 m/s 738 mmHg 34%
    11:00 +32°C° 0 mm 2 m/s 738 mmHg 33%
    12:00 +34°C° 0 mm 2 m/s 739 mmHg 33%
    13:00 +34°C° 0 mm 2 m/s 739 mmHg 32%
    14:00 +34°C° 0 mm 2 m/s 738 mmHg 33%
    15:00 +32°C° 0 mm 2 m/s 738 mmHg 34%
    16:00 +32°C° 0 mm 2 m/s 738 mmHg 35%
    17:00 +31°C° 0 mm 2 m/s 738 mmHg 38%
    18:00 +29°C° 0 mm 2 m/s 738 mmHg 42%
    19:00 +28°C° 0 mm 1 m/s 738 mmHg 46%
    20:00 +28°C° 0 mm 1 m/s 738 mmHg 47%
    21:00 +27°C° 0 mm 1 m/s 738 mmHg 48%
    22:00 +24°C° 0 mm 0 m/s 738 mmHg 49%
    23:00 +26°C° 0 mm 1 m/s 738 mmHg 48%

    Mâine, 22 Iulie, Luni

    Timp Temperatura Precipitaţii Vânt Presiune Umiditate
    00:00 +26°C° 0 mm 1 m/s 738 mmHg 47%
    01:00 +26°C° 0 mm 2 m/s 738 mmHg 45%
    02:00 +26°C° 0 mm 2 m/s 738 mmHg 47%
    03:00 +25°C° 0 mm 2 m/s 738 mmHg 48%
    04:00 +25°C° 0 mm 2 m/s 737 mmHg 49%
    05:00 +26°C° 0 mm 2 m/s 738 mmHg 47%
    06:00 +28°C° 0 mm 1 m/s 738 mmHg 45%
    07:00 +29°C° 0 mm 1 m/s 738 mmHg 42%
    08:00 +30°C° 0 mm 2 m/s 738 mmHg 40%
    09:00 +31°C° 0 mm 2 m/s 738 mmHg 37%
    10:00 +34°C° 0 mm 3 m/s 739 mmHg 35%
    11:00 +34°C° 0 mm 2 m/s 738 mmHg 35%
    12:00 +34°C° 0 mm 2 m/s 738 mmHg 34%
    13:00 +35°C° 0 mm 2 m/s 738 mmHg 34%
    14:00 +35°C° 0 mm 3 m/s 738 mmHg 34%
    15:00 +34°C° 0 mm 3 m/s 737 mmHg 34%
    16:00 +34°C° 0 mm 3 m/s 737 mmHg 34%
    17:00 +32°C° 0 mm 2 m/s 737 mmHg 37%
    18:00 +30°C° 0 mm 2 m/s 737 mmHg 41%
    19:00 +29°C° 0 mm 1 m/s 737 mmHg 44%
    20:00 +28°C° 0 mm 1 m/s 737 mmHg 45%
    21:00 +28°C° 0 mm 1 m/s 737 mmHg 46%
    22:00 +27°C° 0 mm 1 m/s 737 mmHg 48%
    23:00 +27°C° 0 mm 2 m/s 737 mmHg 46%

    Poimâine, 23 Iulie, Marţi

    Timp Temperatura Precipitaţii Vânt Presiune Umiditate
    00:00 +27°C° 0 mm 2 m/s 737 mmHg 44%
    01:00 +26°C° 0 mm 2 m/s 736 mmHg 43%
    02:00 +26°C° 0 mm 2 m/s 736 mmHg 42%
    03:00 +26°C° 0 mm 2 m/s 736 mmHg 42%
    04:00 +26°C° 0 mm 2 m/s 735 mmHg 42%
    05:00 +27°C° 0 mm 1 m/s 735 mmHg 41%
    06:00 +28°C° 0 mm 1 m/s 736 mmHg 40%
    07:00 +29°C° 0 mm 1 m/s 736 mmHg 38%
    08:00 +31°C° 0 mm 1 m/s 736 mmHg 36%
    09:00 +32°C° 0 mm 1 m/s 736 mmHg 33%
    10:00 +33°C° 0 mm 1 m/s 736 mmHg 30%
    11:00 +35°C° 0 mm 2 m/s 736 mmHg 29%
    12:00 +36°C° 0 mm 2 m/s 736 mmHg 28%
    13:00 +36°C° 0 mm 2 m/s 736 mmHg 28%
    14:00 +36°C° 0 mm 2 m/s 735 mmHg 29%
    15:00 +36°C° 0 mm 3 m/s 735 mmHg 30%
    16:00 +35°C° 0 mm 3 m/s 735 mmHg 31%
    17:00 +34°C° 0 mm 2 m/s 735 mmHg 35%
    18:00 +31°C° 0 mm 2 m/s 735 mmHg 40%
    19:00 +30°C° 0 mm 1 m/s 735 mmHg 44%
    20:00 +29°C° 0 mm 1 m/s 735 mmHg 46%
    21:00 +28°C° 0 mm 1 m/s 735 mmHg 47%
    22:00 +28°C° 0 mm 2 m/s 735 mmHg 48%
    23:00 +27°C° 0 mm 2 m/s 735 mmHg 48%

    24 Iulie, Miercuri

    Timp Temperatura Precipitaţii Vânt Presiune Umiditate
    00:00 +27°C° 0 mm 1 m/s 735 mmHg 47%
    01:00 +27°C° 0 mm 1 m/s 734 mmHg 47%
    02:00 +26°C° 0 mm 1 m/s 734 mmHg 48%
    03:00 +26°C° 0 mm 1 m/s 734 mmHg 49%
    04:00 +26°C° 0 mm 1 m/s 734 mmHg 50%
    05:00 +27°C° 0 mm 1 m/s 734 mmHg 47%
    06:00 +28°C° 0 mm 1 m/s 734 mmHg 43%
    07:00 +29°C° 0 mm 1 m/s 734 mmHg 40%
    08:00 +31°C° 0 mm 1 m/s 734 mmHg 37%
    09:00 +32°C° 0 mm 1 m/s 734 mmHg 33%
    10:00 +34°C° 0 mm 2 m/s 735 mmHg 30%
    11:00 +35°C° 0 mm 2 m/s 735 mmHg 30%
    12:00 +35°C° 0 mm 2 m/s 734 mmHg 30%
    13:00 +36°C° 0 mm 2 m/s 734 mmHg 30%
    14:00 +35°C° 0 mm 2 m/s 734 mmHg 32%
    15:00 +35°C° 0 mm 3 m/s 734 mmHg 34%
    16:00 +34°C° 0 mm 3 m/s 734 mmHg 36%
    17:00 +33°C° 0 mm 3 m/s 734 mmHg 41%
    18:00 +30°C° 0 mm 2 m/s 734 mmHg 45%
    19:00 +29°C° 0 mm 2 m/s 734 mmHg 50%
    20:00 +28°C° 0 mm 2 m/s 734 mmHg 54%
    21:00 +27°C° 0 mm 1 m/s 734 mmHg 57%
    22:00 +27°C° 0 mm 1 m/s 735 mmHg 61%
    23:00 +26°C° 0 mm 1 m/s 734 mmHg 60%

    25 Iulie, Joi

    Timp Temperatura Precipitaţii Vânt Presiune Umiditate
    00:00 +26°C° 0 mm 1 m/s 734 mmHg 59%
    01:00 +26°C° 0 mm 1 m/s 734 mmHg 59%
    02:00 +26°C° 0 mm 1 m/s 734 mmHg 58%
    03:00 +25°C° 0 mm 1 m/s 734 mmHg 57%
    04:00 +25°C° 0 mm 1 m/s 734 mmHg 56%
    05:00 +26°C° 0 mm 1 m/s 734 mmHg 53%
    06:00 +27°C° 0 mm 1 m/s 734 mmHg 50%
    07:00 +28°C° 0 mm 1 m/s 734 mmHg 47%
    08:00 +30°C° 0 mm 1 m/s 735 mmHg 45%
    09:00 +31°C° 0 mm 2 m/s 735 mmHg 42%
    10:00 +32°C° 0 mm 2 m/s 735 mmHg 40%
    11:00 +33°C° 0 mm 3 m/s 735 mmHg 39%
    12:00 +34°C° 0 mm 3 m/s 735 mmHg 39%
    13:00 +34°C° 0 mm 3 m/s 734 mmHg 38%
    14:00 +34°C° 0 mm 3 m/s 734 mmHg 40%
    15:00 +33°C° 0 mm 3 m/s 734 mmHg 41%
    16:00 +31°C° 0 mm 3 m/s 734 mmHg 43%
    17:00 +30°C° 0 mm 2 m/s 734 mmHg 46%
    18:00 +29°C° 0 mm 2 m/s 734 mmHg 50%
    19:00 +28°C° 0 mm 1 m/s 734 mmHg 53%
    20:00 +27°C° 0 mm 1 m/s 734 mmHg 55%
    21:00 +27°C° 0 mm 1 m/s 734 mmHg 58%
    22:00 +24°C° 0 mm 0 m/s 734 mmHg 60%
    23:00 +24°C° 0 mm 0 m/s 734 mmHg 60%

    26 Iulie, Vineri

    Timp Temperatura Precipitaţii Vânt Presiune Umiditate
    00:00 +24°C° 0 mm 0 m/s 734 mmHg 61%
    01:00 +26°C° 0 mm 1 m/s 734 mmHg 61%
    02:00 +25°C° 0 mm 1 m/s 734 mmHg 61%
    03:00 +25°C° 0 mm 1 m/s 734 mmHg 61%
    04:00 +25°C° 0 mm 1 m/s 734 mmHg 62%
    05:00 +24°C° 0 mm 0 m/s 734 mmHg 58%
    06:00 +25°C° 0 mm 0 m/s 734 mmHg 54%
    07:00 +27°C° 0 mm 0 m/s 734 mmHg 51%
    08:00 +30°C° 0 mm 1 m/s 734 mmHg 47%
    09:00 +31°C° 0 mm 1 m/s 735 mmHg 43%
    10:00 +32°C° 0 mm 2 m/s 735 mmHg 40%
    11:00 +32°C° 0 mm 2 m/s 735 mmHg 40%
    12:00 +34°C° 0 mm 3 m/s 734 mmHg 40%
    13:00 +34°C° 0 mm 3 m/s 734 mmHg 40%
    14:00 +34°C° 0 mm 3 m/s 734 mmHg 41%
    15:00 +33°C° 0 mm 3 m/s 734 mmHg 42%
    16:00 +33°C° 0 mm 3 m/s 733 mmHg 42%
    17:00 +31°C° 0 mm 2 m/s 733 mmHg 46%
    18:00 +30°C° 0 mm 2 m/s 733 mmHg 49%
    19:00 +29°C° 0 mm 1 m/s 733 mmHg 53%
    20:00 +28°C° 0 mm 1 m/s 733 mmHg 55%
    21:00 +27°C° 0 mm 1 m/s 734 mmHg 56%
    22:00 +27°C° 0 mm 1 m/s 734 mmHg 58%
    23:00 +27°C° 0 mm 1 m/s 734 mmHg 58%
    Arată mai mult